Weather History for West Yellowstone, MT

Change the Weather History Date:

Wednesday, June 26, 2013

  Actual Average Record
Temperature  
Mean Temperature 60 °F -  
Max Temperature 69 °F 73 °F 69 °F (2012)
Min Temperature 50 °F 38 °F 37 °F (2012)
Degree Days  
Heating Degree Days 6    
Growing Degree Days 10 (Base 50)    
Moisture  
Dew Point 54 °F    
Average Humidity 85    
Maximum Humidity 88    
Minimum Humidity 82    
Precipitation  
Precipitation 0.01 in - - ()
Sea Level Pressure  
Sea Level Pressure 30.20 in    
Wind  
Wind Speed 8 mph (SSW)    
Max Wind Speed 23 mph    
Max Gust Speed 36 mph    
Visibility 10 miles    
Events Rain    
Averages and records for this station are not official NWS values.
T = Trace of Precipitation, MM = Missing Value Source: NWS Daily Summary

Daily Weather History Graph

Daily Weather History Graph

Search for Another Location

Airport:

Trip Planner

Search our weather history database for the weather conditions in past years. The results will help you decide how hot, cold, wet, or windy it might be!

Date:

Astronomy

Jun. 26, 2013 Rise Set
Actual Time 5:40 AM MDT 9:14 PM MDT
Civil Twilight 5:03 AM MDT 9:51 PM MDT
Nautical Twilight 4:14 AM MDT 10:40 PM MDT
Astronomical Twilight 3:10 AM MDT 11:43 PM MDT
Moon 11:27 PM MDT (6/26) 9:46 AM MDT (6/26)
Length of Visible Light 16h 47m
Length of Day
15h 33m
Waning Gibbous, 85% of the Moon is Illuminated
Jun 26
Waning Gibbous
Jun 29
Last Quarter
Jul 8
New
Jul 15
First Quarter
Jul 22
Full

Hourly Weather History & Observations

Time (MDT) Temp. Dew Point Humidity Pressure Visibility Wind Dir Wind Speed Gust Speed Precip Events Conditions
12:10 AM 50.0 °F 46.4 °F 87% 30.12 in 10.0 mi Calm Calm - N/A   Overcast
12:30 AM 51.8 °F 46.4 °F 82% 30.13 in 8.0 mi SSW 4.6 mph - N/A Rain Light Rain
12:50 AM 51.8 °F 46.4 °F 82% 30.13 in 10.0 mi SW 3.5 mph - N/A   Overcast
1:10 AM 50.0 °F 46.4 °F 87% 30.12 in 5.0 mi SSW 8.1 mph - 0.01 in Rain Light Rain
1:30 AM 50.0 °F 46.4 °F 87% 30.11 in 10.0 mi South 8.1 mph - 0.01 in   Mostly Cloudy
1:50 AM 50.0 °F 46.4 °F 87% 30.11 in 10.0 mi SSW 8.1 mph - 0.01 in   Mostly Cloudy
2:10 AM 51.8 °F 46.4 °F 82% 30.12 in 10.0 mi SE 5.8 mph - N/A   Mostly Cloudy
2:30 AM 50.0 °F 46.4 °F 87% 30.12 in 10.0 mi SE 4.6 mph - N/A   Mostly Cloudy
2:50 AM 50.0 °F 46.4 °F 87% 30.13 in 10.0 mi SE 4.6 mph - N/A   Overcast
3:10 AM 50.0 °F 46.4 °F 87% 30.13 in 10.0 mi ESE 4.6 mph - N/A   Overcast
3:30 AM 50.0 °F 46.4 °F 87% 30.14 in 10.0 mi WSW 3.5 mph - N/A   Overcast
3:50 AM 51.8 °F 46.4 °F 82% 30.14 in 10.0 mi South 3.5 mph - N/A   Overcast
4:10 AM 51.8 °F 46.4 °F 82% 30.14 in 10.0 mi Calm Calm - N/A   Overcast
4:30 AM 51.8 °F 46.4 °F 82% 30.14 in 10.0 mi Calm Calm - N/A   Overcast
4:50 AM 50.0 °F 46.4 °F 87% 30.14 in 10.0 mi Calm Calm - N/A   Overcast
5:10 AM 51.8 °F 46.4 °F 82% 30.14 in 10.0 mi South 8.1 mph - N/A   Overcast
5:30 AM 51.8 °F 46.4 °F 82% 30.15 in 10.0 mi SSW 4.6 mph - N/A   Overcast
5:50 AM 51.8 °F 48.2 °F 88% 30.16 in 10.0 mi Calm Calm - N/A   Overcast
6:10 AM 51.8 °F 48.2 °F 88% 30.16 in 10.0 mi SSW 4.6 mph - N/A   Overcast
6:30 AM 53.6 °F 48.2 °F 82% 30.17 in 10.0 mi South 3.5 mph - N/A   Overcast
6:50 AM 53.6 °F 48.2 °F 82% 30.18 in 10.0 mi SSE 5.8 mph - N/A   Overcast
7:10 AM 53.6 °F 50.0 °F 88% 30.18 in 10.0 mi South 6.9 mph - N/A   Overcast
7:30 AM 53.6 °F 50.0 °F 88% 30.18 in 10.0 mi South 8.1 mph - N/A   Overcast
7:50 AM 53.6 °F 50.0 °F 88% 30.19 in 10.0 mi South 8.1 mph - N/A   Overcast
8:10 AM 53.6 °F 48.2 °F 82% 30.20 in 10.0 mi SSE 5.8 mph - N/A   Overcast
8:30 AM 53.6 °F 50.0 °F 88% 30.20 in 10.0 mi SSW 5.8 mph - N/A   Overcast
8:50 AM 55.4 °F 50.0 °F 82% 30.21 in 10.0 mi SSW 9.2 mph - N/A   Overcast
9:10 AM 55.4 °F 51.8 °F 88% 30.21 in 10.0 mi SSW 9.2 mph - N/A   Overcast
9:30 AM 55.4 °F 50.0 °F 82% 30.22 in 10.0 mi SSW 8.1 mph 18.4 mph N/A   Overcast
9:50 AM 57.2 °F 51.8 °F 82% 30.22 in 10.0 mi SSW 10.4 mph 16.1 mph N/A   Overcast
10:10 AM 57.2 °F 53.6 °F 88% 30.22 in 10.0 mi SSW 9.2 mph - N/A   Overcast
10:30 AM 59.0 °F 53.6 °F 82% 30.22 in 10.0 mi South 12.7 mph 21.9 mph N/A   Overcast
10:50 AM 59.0 °F 55.4 °F 88% 30.22 in 10.0 mi SSW 18.4 mph 23.0 mph N/A   Mostly Cloudy
11:10 AM 59.0 °F 55.4 °F 88% 30.22 in 10.0 mi South 13.8 mph - N/A   Mostly Cloudy
11:30 AM 59.0 °F 55.4 °F 88% 30.23 in 10.0 mi SSW 12.7 mph 19.6 mph N/A   Mostly Cloudy
11:50 AM 60.8 °F 55.4 °F 82% 30.22 in 10.0 mi SW 13.8 mph 21.9 mph N/A   Scattered Clouds
12:05 PM 62.6 °F 57.2 °F 82% 30.22 in 10.0 mi South 13.8 mph 19.6 mph N/A   Partly Cloudy
1:30 PM 62.6 °F 57.2 °F 82% 30.23 in 10.0 mi South 11.5 mph 20.7 mph N/A   Overcast
1:50 PM 62.6 °F 57.2 °F 82% 30.22 in 10.0 mi WSW 10.4 mph 16.1 mph N/A   Overcast
2:10 PM 64.4 °F 59.0 °F 83% 30.21 in 10.0 mi SW 15.0 mph 20.7 mph N/A   Overcast
2:30 PM 62.6 °F 57.2 °F 82% 30.22 in 10.0 mi SW 11.5 mph 19.6 mph N/A   Overcast
2:50 PM 64.4 °F 59.0 °F 83% 30.22 in 10.0 mi SW 17.3 mph 23.0 mph N/A   Overcast
3:10 PM 64.4 °F 59.0 °F 83% 30.21 in 10.0 mi SSW 17.3 mph 24.2 mph N/A   Overcast
3:30 PM 64.4 °F 59.0 °F 83% 30.22 in 10.0 mi SSW 10.4 mph 19.6 mph N/A   Overcast
3:50 PM 64.4 °F 59.0 °F 83% 30.21 in 10.0 mi SW 17.3 mph 21.9 mph N/A   Mostly Cloudy
4:10 PM 68.0 °F 62.6 °F 83% 30.21 in 10.0 mi SSW 19.6 mph 29.9 mph N/A   Mostly Cloudy
4:30 PM 68.0 °F 64.4 °F 88% 30.20 in 10.0 mi SSW 23.0 mph 29.9 mph N/A   Scattered Clouds
4:50 PM 68.0 °F 64.4 °F 88% 30.20 in 10.0 mi SSW 23.0 mph 35.7 mph N/A   Mostly Cloudy
5:10 PM 68.0 °F 64.4 °F 88% 30.20 in 10.0 mi SSW 19.6 mph 28.8 mph N/A   Mostly Cloudy
5:30 PM 68.0 °F 64.4 °F 88% 30.20 in 10.0 mi SSW 20.7 mph 33.4 mph N/A   Scattered Clouds
5:50 PM 66.2 °F 62.6 °F 88% 30.20 in 10.0 mi SSW 23.0 mph 28.8 mph N/A   Scattered Clouds
6:10 PM 66.2 °F 62.6 °F 88% 30.20 in 10.0 mi SSW 21.9 mph 31.1 mph N/A   Scattered Clouds
6:30 PM 68.0 °F 64.4 °F 88% 30.21 in 10.0 mi SSW 21.9 mph 29.9 mph N/A   Mostly Cloudy
6:50 PM 69.8 °F 64.4 °F 83% 30.20 in 10.0 mi SSW 23.0 mph 33.4 mph N/A   Scattered Clouds
7:10 PM 68.0 °F 64.4 °F 88% 30.21 in 10.0 mi SSW 17.3 mph 28.8 mph N/A   Partly Cloudy
7:30 PM 68.0 °F 64.4 °F 88% 30.21 in 10.0 mi SW 13.8 mph 24.2 mph N/A   Clear
7:50 PM 68.0 °F 64.4 °F 88% 30.21 in 10.0 mi SW 12.7 mph 23.0 mph N/A   Clear
8:10 PM 68.0 °F 64.4 °F 88% 30.22 in 10.0 mi SW 18.4 mph 27.6 mph N/A   Clear
8:30 PM 68.0 °F 62.6 °F 83% 30.22 in 10.0 mi SW 18.4 mph 23.0 mph N/A   Clear
8:50 PM 66.2 °F 60.8 °F 83% 30.23 in 10.0 mi SW 15.0 mph 21.9 mph N/A   Clear
9:10 PM 64.4 °F 59.0 °F 83% 30.24 in 10.0 mi SW 9.2 mph 17.3 mph N/A   Clear
9:30 PM 62.6 °F 57.2 °F 82% 30.24 in 10.0 mi SW 6.9 mph - N/A   Mostly Cloudy
9:50 PM 62.6 °F 57.2 °F 82% 30.25 in 10.0 mi West 5.8 mph - N/A   Mostly Cloudy
10:10 PM 64.4 °F 59.0 °F 83% 30.27 in 10.0 mi WSW 5.8 mph 16.1 mph N/A   Overcast
10:30 PM 62.6 °F 57.2 °F 82% 30.27 in 10.0 mi SW 6.9 mph - N/A   Mostly Cloudy
10:50 PM 59.0 °F 55.4 °F 88% 30.28 in 10.0 mi SSW 6.9 mph - N/A   Partly Cloudy
11:10 PM 57.2 °F 53.6 °F 88% 30.28 in 10.0 mi SW 8.1 mph - N/A   Clear
11:30 PM 59.0 °F 53.6 °F 82% 30.29 in 10.0 mi SW 8.1 mph - N/A   Clear
11:50 PM 57.2 °F 51.8 °F 82% 30.29 in 10.0 mi SW 6.9 mph - N/A   Clear